Location: Saint-Usage
(47.1052°N, 5.2587°E)
Time: 01:41:15
(UTC+01:00)

NOAA 19 - Pass Details

Date: 05 December 2021
Orbit: 841 x 860 km, 99.2° (Epoch: 17 January)

Event Time Altitude Azimuth Distance (km) Brightness Sun altitude
Rises 21:04:56 0° 224° (SW) 3,387 8.7 -42.4°
Reaches altitude 10° 21:09:28 10° 259° (W) 2,462 8.1 -43.1°
Maximum altitude 21:10:52 11° 274° (W) 2,399 8.1 -43.4°
Drops below altitude 10° 21:12:17 10° 290° (WNW) 2,469 8.2 -43.6°
Sets 21:16:53 0° 325° (NW) 3,416 8.9 -44.3°
